Date String (YYYY-MM-DD hh:mm:ss) UTC,Instrument flags,Ambient pressure (hPa),Sample flow (lpm),Bypass flow (lpm),Sample temperature (°C),Ambient temperature (°C),ASC tube jacket temperature (°C),LED temperature (°C),Box temperature (°C),Sample RH (%),Span deviation,Mass concentration (μg/m³),Mass concentration (μg/m³),Mass concentration (μg/m³)
DateTimeUTC,F1_M11,P_M11,Q1_M11,Q2_M11,T1_M11,T2_M11,T3_M11,T4_M11,T5_M11,U1_M11,ZSPAN_M11,X0_M11,X2_M11,X1_M11
2022-08-08 19:00:00,,0831.5,4.99,0.00,30.9,28.5,00.0,39.5,32.0,33.3,0000.0,0009.47,0004.68,0004.30
2022-08-08 19:01:00,,0831.4,5.00,0.00,30.9,27.9,00.0,39.4,31.8,32.4,0000.0,0009.07,0004.60,0004.23
2022-08-08 19:02:00,,0831.4,4.98,0.00,30.8,27.5,00.0,39.3,31.8,32.4,0000.0,0009.05,0004.55,0004.15
2022-08-08 19:03:00,,0831.4,5.01,0.00,30.7,27.5,00.0,39.3,31.7,32.7,0000.0,0009.09,0004.50,0004.08
2022-08-08 19:04:00,,0831.4,4.99,0.00,30.6,27.5,00.0,39.3,31.6,34.7,0000.0,0009.13,0004.47,0004.03
2022-08-08 19:05:00,,0831.3,5.01,0.00,30.7,27.7,00.0,39.2,31.8,35.6,0000.0,0009.33,0004.44,0004.00
2022-08-08 19:06:00,,0831.3,5.00,0.00,30.9,27.9,00.0,39.2,32.0,35.5,0000.0,0008.89,0004.44,0003.99
2022-08-08 19:07:00,,0831.4,5.00,0.00,31.1,28.0,00.0,39.2,32.1,34.4,0000.0,0008.27,0004.41,0003.99
2022-08-08 19:08:00,,0831.4,4.99,0.00,31.2,28.2,00.0,39.2,32.1,33.9,0000.0,0008.23,0004.41,0003.98
2022-08-08 19:09:00,,0831.5,5.00,0.00,31.3,28.4,00.0,39.3,32.1,34.1,0000.0,0008.14,0004.41,0003.98
2022-08-08 19:10:00,,0831.5,5.02,0.00,31.3,28.4,00.0,39.3,32.1,33.6,0000.0,0007.98,0004.41,0003.99
2022-08-08 19:11:00,,0831.4,5.00,0.00,31.3,28.0,00.0,39.3,32.0,33.3,0000.0,0007.97,0004.42,0003.99
2022-08-08 19:12:00,,0831.5,4.99,0.00,31.3,27.5,00.0,39.3,31.9,33.4,0000.0,0008.14,0004.46,0003.99
2022-08-08 19:13:00,,0831.5,5.01,0.00,31.2,27.4,00.0,39.3,31.8,33.9,0000.0,0008.01,0004.42,0003.98
2022-08-08 19:14:00,,0831.4,4.99,0.00,31.0,27.5,00.0,39.3,31.7,33.6,0000.0,0007.92,0004.40,0003.98
2022-08-08 19:15:00,,0831.4,5.01,0.00,31.0,27.6,00.0,39.3,31.8,34.2,0000.0,0008.03,0004.39,0003.97
2022-08-08 19:16:00,,0831.3,4.99,0.00,30.9,27.8,00.0,39.3,31.8,34.2,0000.0,0007.84,0004.36,0003.94
2022-08-08 19:17:00,,0831.3,4.99,0.00,30.9,28.0,00.0,39.3,31.9,33.0,0000.0,0007.46,0004.28,0003.90
2022-08-08 19:18:00,,0831.3,5.01,0.00,30.9,28.2,00.0,39.3,31.9,32.8,0000.0,0007.38,0004.23,0003.85
2022-08-08 19:19:00,,0831.2,5.00,0.00,30.9,28.3,00.0,39.3,32.0,33.2,0000.0,0007.27,0004.19,0003.81
2022-08-08 19:20:00,,0831.2,5.00,0.00,30.9,28.4,00.0,39.3,32.0,33.5,0000.0,0007.71,0004.14,0003.78
2022-08-08 19:21:00,,0831.2,5.01,0.00,30.8,28.0,00.0,39.3,31.8,33.8,0000.0,0007.93,0004.12,0003.75
2022-08-08 19:22:00,,0831.2,5.00,0.00,30.8,27.4,00.0,39.3,31.7,34.9,0000.0,0008.18,0004.13,0003.75
2022-08-08 19:23:00,,0831.2,4.99,0.00,30.8,27.3,00.0,39.2,31.7,34.5,0000.0,0008.10,0004.11,0003.75
2022-08-08 19:24:00,,0831.2,5.01,0.00,30.7,27.4,00.0,39.2,31.7,34.4,0000.0,0008.47,0004.14,0003.77
2022-08-08 19:25:00,,0831.2,4.99,0.00,30.7,27.5,00.0,39.2,31.7,34.6,0000.0,0008.60,0004.17,0003.77
2022-08-08 19:26:00,,0831.2,5.01,0.00,30.6,27.7,00.0,39.2,31.8,33.8,0000.0,0008.52,0004.16,0003.76
2022-08-08 19:27:00,,0831.2,5.01,0.00,30.7,27.9,00.0,39.2,31.8,34.8,0000.0,0008.47,0004.13,0003.75
2022-08-08 19:28:00,,0831.2,4.99,0.00,30.7,28.1,00.0,39.2,31.9,33.2,0000.0,0008.48,0004.14,0003.75
2022-08-08 19:29:00,,0831.2,5.00,0.00,30.8,28.3,00.0,39.2,32.0,32.3,0000.0,0008.54,0004.16,0003.74
2022-08-08 19:30:00,,0831.2,4.99,0.00,30.9,28.4,00.0,39.2,32.0,32.8,0000.0,0008.59,0004.16,0003.73
2022-08-08 19:31:00,,0831.2,5.01,0.00,30.9,28.4,00.0,39.2,32.0,33.6,0000.0,0008.21,0004.15,0003.72
2022-08-08 19:32:00,,0831.2,4.99,0.00,30.8,27.8,00.0,39.2,31.7,33.7,0000.0,0007.85,0004.14,0003.72
2022-08-08 19:33:00,,0831.2,5.00,0.00,30.8,27.4,00.0,39.1,31.6,33.7,0000.0,0007.58,0004.11,0003.69
2022-08-08 19:34:00,,0831.2,4.99,0.00,30.7,27.3,00.0,39.1,31.6,33.3,0000.0,0007.50,0004.07,0003.66
2022-08-08 19:35:00,,0831.2,5.00,0.00,30.6,27.4,00.0,39.1,31.5,33.9,0000.0,0006.93,0004.05,0003.63
2022-08-08 19:36:00,,0831.2,5.00,0.00,30.5,27.6,00.0,39.1,31.6,35.2,0000.0,0006.87,0004.03,0003.62
2022-08-08 19:37:00,,0831.1,5.01,0.00,30.7,27.8,00.0,39.1,31.8,35.8,0000.0,0007.55,0004.00,0003.61
2022-08-08 19:38:00,,0831.1,5.00,0.00,30.9,28.0,00.0,39.1,32.0,34.0,0000.0,0007.49,0003.98,0003.60
2022-08-08 19:39:00,,0831.2,5.01,0.00,31.1,28.2,00.0,39.1,32.0,34.9,0000.0,0007.46,0003.97,0003.60
2022-08-08 19:40:00,,0831.2,4.99,0.00,31.2,28.3,00.0,39.1,32.1,34.9,0000.0,0007.46,0003.99,0003.63
2022-08-08 19:41:00,,0831.2,5.00,0.00,31.4,28.1,00.0,39.2,32.0,35.7,0000.0,0007.43,0004.00,0003.66
2022-08-08 19:42:00,,0831.2,5.01,0.00,31.6,27.5,00.0,39.2,32.0,34.6,0000.0,0007.42,0004.01,0003.68
2022-08-08 19:43:00,,0831.1,5.00,0.00,31.7,27.2,00.0,39.2,32.0,34.0,0000.0,0007.45,0004.03,0003.70
2022-08-08 19:44:00,,0831.2,5.01,0.00,31.7,27.3,00.0,39.2,31.8,33.9,0000.0,0007.99,0004.05,0003.72
2022-08-08 19:45:00,,0831.2,5.00,0.00,31.7,27.4,00.0,39.3,31.8,34.1,0000.0,0008.11,0004.07,0003.75
2022-08-08 19:46:00,,0831.2,4.99,0.00,31.6,27.6,00.0,39.3,31.9,34.1,0000.0,0008.20,0004.11,0003.79
2022-08-08 19:47:00,,0831.2,5.00,0.00,31.6,27.8,00.0,39.4,31.9,34.3,0000.0,0008.21,0004.12,0003.82
2022-08-08 19:48:00,,0831.1,5.01,0.00,31.6,28.0,00.0,39.5,32.0,34.5,0000.0,0007.72,0004.19,0003.86
2022-08-08 19:49:00,,0831.2,4.99,0.00,31.6,28.2,00.0,39.5,32.1,34.2,0000.0,0007.85,0004.24,0003.89
2022-08-08 19:50:00,,0831.1,5.00,0.00,31.6,28.4,00.0,39.6,32.1,33.5,0000.0,0008.48,0004.29,0003.92
2022-08-08 19:51:00,,0831.1,5.00,0.00,31.6,28.5,00.0,39.6,32.1,33.7,0000.0,0008.55,0004.30,0003.94
2022-08-08 19:52:00,,0831.1,5.01,0.00,31.6,28.1,00.0,39.6,32.0,34.1,0000.0,0008.61,0004.33,0003.95
2022-08-08 19:53:00,,0831.0,5.00,0.00,31.5,27.6,00.0,39.6,32.0,33.1,0000.0,0008.88,0004.35,0003.96
2022-08-08 19:54:00,,0831.0,4.99,0.00,31.4,27.5,00.0,39.6,31.9,33.3,0000.0,0009.97,0004.38,0003.95
2022-08-08 19:55:00,,0831.0,5.01,0.00,31.3,27.6,00.0,39.5,31.8,33.4,0000.0,0010.26,0004.40,0003.94
2022-08-08 19:56:00,,0831.1,5.00,0.00,31.2,27.7,00.0,39.5,31.8,33.5,0000.0,0010.18,0004.41,0003.93
2022-08-08 19:57:00,,0831.0,5.06,0.00,31.1,27.9,00.0,39.5,31.9,33.9,0000.0,0010.15,0004.40,0003.92
2022-08-08 19:58:00,,0831.0,4.99,0.00,31.1,28.1,00.0,39.5,31.9,33.1,0000.0,0010.18,0004.39,0003.89
2022-08-08 19:59:00,,0831.1,5.00,0.00,31.1,28.2,00.0,39.5,32.0,33.0,0000.0,0010.08,0004.37,0003.86
